Location: Dehesa de la Cepeda
(40.6574°N, 4.3013°W)
Time: 20:09:26
(UTC+00:00)

Vanguard 2 Rocket - Pass Details

Date: 04 August 2021
Orbit: 556 x 3324 km, 32.9° (Epoch: 19 September)

Event Time Altitude Azimuth Distance (km) Brightness Sun altitude
Rises 09:27:11 0° 258° (WSW) 2,743 9.0 45.5°
Reaches altitude 10° 09:29:35 10° 245° (WSW) 1,827 8.3 45.9°
Maximum altitude 09:32:57 26° 186° (S) 1,156 7.9 46.5°
Drops below altitude 10° 09:36:51 10° 128° (SE) 2,151 9.7 47.2°
Sets 09:39:57 0° 117° (ESE) 3,359 10.5 47.8°
